{"data":{"norad_id":48995,"intl_designator":"2021-060AE","name":"ONEWEB-0277","alt_names":[],"object_type":"PAYLOAD","status":"ACTIVE","operator":null,"country":"UK","launch_date":"2021-07-01","launch_site_code":"VOSTO","launch_vehicle":null,"mission":null,"orbit_class":"UNKNOWN","rcs_meters":null,"size_class":null,"mass_kg":null,"dimensions":null,"purposes":["comms"],"wikipedia_slug":null,"has_3d_model":false,"image_url":null,"decayed_at":null,"tle_current":{"epoch":"2026-05-24T22:39:44.332704Z","epoch_age_seconds":73166,"freshness":"FRESH","line1":"1 48995U 21060AE  26144.94426311  .00000040  00000+0  71644-4 0  9990","line2":"2 48995  87.9100 233.3998 0001828  98.4588 261.6750 13.16593063236500","mean_motion":13.16593063,"eccentricity":0.0001828,"inclination_deg":87.91,"raan_deg":233.3998,"arg_perigee_deg":98.4588,"mean_anomaly_deg":261.675,"bstar":7.1644e-5,"rev_number":23650,"period_min":109.37320273576,"perigee_km":1196.3763732089,"apogee_km":1199.1461216081,"semimajor_km":7575.8982474085,"source":"CELESTRAK","updated_at":"2026-05-25T13:38:22.478507Z"}}}